�N����,����,�~����,�C��,���x,�C��,����,���ϕ���,�ő�u�ԕ���,�ő厞����,���˗�,�I�_���x,�n�����x,�ő啗���N��,DTYPE
"23/10/11","00:10",0.0,15.1,84.7,1012.8,312.9,1.1,1.9,308.8,0.00,12.6,19.5,"00:01:32",1
"23/10/11","00:20",0.0,15.0,85.6,1012.6,325.8,1.1,1.7,308.2,0.00,12.6,19.5,"00:12:08",1
"23/10/11","00:30",0.0,15.0,86.5,1012.6,332.6,1.2,1.9,359.0,0.00,12.8,19.3,"00:20:24",1
"23/10/11","00:40",0.0,14.8,87.1,1012.6,320.7,1.3,2.0,328.7,0.00,12.7,19.4,"00:31:02",1
"23/10/11","00:50",0.0,14.5,87.7,1012.8,304.2,1.2,1.8,319.1,0.00,12.5,19.2,"00:45:46",1
"23/10/11","01:00",0.0,14.6,88.2,1012.8,313.8,1.6,2.7,315.5,0.00,12.7,19.4,"00:53:12",1
"23/10/11","01:10",0.0,14.6,88.5,1012.6,331.4,1.3,2.2,339.8,0.00,12.8,19.3,"01:07:38",1
"23/10/11","01:20",0.0,14.4,89.1,1013.3,331.5,1.5,2.5,344.9,0.00,12.7,19.3,"01:18:58",1
"23/10/11","01:30",0.0,14.5,89.6,1013.0,321.9,1.8,2.8,328.2,0.00,12.9,19.3,"01:20:08",1
"23/10/11","01:40",0.0,14.6,89.9,1013.3,308.8,1.7,2.4,314.2,0.00,13.0,19.2,"01:38:54",1
"23/10/11","01:50",0.0,14.6,90.0,1013.5,310.7,1.5,2.2,329.6,0.00,13.0,19.0,"01:43:14",1
"23/10/11","02:00",0.0,14.3,90.2,1013.0,311.2,1.3,1.8,321.7,0.00,12.8,19.1,"01:58:56",1
"23/10/11","02:10",0.0,14.2,90.6,1013.0,317.9,1.7,2.4,316.7,0.00,12.7,18.9,"02:03:52",1
"23/10/11","02:20",0.0,14.3,90.7,1013.0,314.8,1.7,2.9,311.2,0.00,12.8,19.0,"02:11:52",1
"23/10/11","02:30",0.0,14.4,90.8,1013.5,323.8,1.8,2.7,331.8,0.00,13.0,19.1,"02:22:56",1
"23/10/11","02:40",0.0,14.4,90.7,1013.5,315.6,1.1,2.4,329.4,0.00,12.9,19.1,"02:33:38",1
"23/10/11","02:50",0.0,14.3,90.7,1013.5,313.2,1.8,2.6,322.4,0.00,12.8,19.1,"02:42:36",1
"23/10/11","03:00",0.0,14.2,90.8,1013.5,311.0,1.7,2.5,317.5,0.00,12.8,19.0,"02:51:36",1
"23/10/11","03:10",0.0,14.4,90.8,1012.8,320.9,1.7,2.7,293.5,0.00,13.0,19.1,"03:05:50",1
"23/10/11","03:20",0.0,14.4,90.6,1013.3,296.4,1.6,2.6,319.3,0.00,12.9,18.9,"03:11:40",1
"23/10/11","03:30",0.0,14.3,90.5,1013.3,298.1,1.1,1.9,312.1,0.00,12.8,18.9,"03:21:18",1
"23/10/11","03:40",0.0,14.4,90.5,1014.0,316.5,1.0,1.9,319.2,0.00,12.9,18.8,"03:37:38",1
"23/10/11","03:50",0.0,14.4,90.3,1013.8,313.1,1.3,2.0,311.9,0.00,12.9,18.9,"03:46:00",1
"23/10/11","04:00",0.0,14.4,90.3,1014.0,302.2,1.3,2.1,298.2,0.00,12.9,18.8,"03:53:48",1
"23/10/11","04:10",0.0,14.3,90.2,1013.8,287.8,1.2,2.5,314.6,0.00,12.8,18.8,"04:09:36",1
"23/10/11","04:20",0.0,14.3,90.1,1014.5,305.2,0.8,2.0,313.7,0.00,12.7,18.8,"04:11:50",1
"23/10/11","04:30",0.0,14.0,90.1,1014.0,287.0,0.7,1.1,292.1,0.00,12.4,18.8,"04:24:40",1
"23/10/11","04:40",0.0,13.9,90.3,1013.8,313.7,1.3,2.0,323.4,0.00,12.4,18.8,"04:34:24",1
"23/10/11","04:50",0.0,13.8,90.7,1014.0,297.6,1.1,1.8,331.2,0.00,12.3,18.8,"04:46:08",1
"23/10/11","05:00",0.0,13.9,91.0,1014.5,201.8,0.2,0.8,220.8,0.00,12.5,18.7,"04:56:00",1
"23/10/11","05:10",0.0,13.9,91.2,1014.2,276.9,0.8,1.7,317.3,0.00,12.5,18.8,"05:08:32",1
"23/10/11","05:20",0.0,14.0,91.5,1014.0,304.1,1.3,1.9,331.3,0.00,12.7,18.7,"05:18:56",1
"23/10/11","05:30",0.0,14.0,91.7,1014.5,313.6,1.3,2.1,328.5,0.00,12.7,18.7,"05:21:12",1
"23/10/11","05:40",0.0,13.9,91.8,1014.5,315.2,1.2,2.0,325.2,0.00,12.6,18.8,"05:36:24",1
"23/10/11","05:50",0.0,13.8,92.0,1014.7,313.3,1.1,1.7,338.2,0.00,12.6,18.7,"05:45:04",1
"23/10/11","06:00",0.0,13.6,92.3,1014.9,244.5,0.7,1.3,268.6,0.00,12.4,18.7,"05:52:16",1
"23/10/11","06:10",0.0,13.8,92.5,1015.2,265.6,1.2,2.2,252.1,0.00,12.6,18.7,"06:03:44",1
"23/10/11","06:20",0.0,13.9,92.6,1015.4,319.3,1.3,2.6,331.9,0.00,12.8,18.6,"06:16:28",1
"23/10/11","06:30",0.0,13.9,92.7,1015.6,303.6,1.3,2.2,337.0,0.00,12.8,18.6,"06:20:24",1
"23/10/11","06:40",0.0,13.9,92.8,1015.6,287.7,1.0,1.4,309.5,0.00,12.8,18.4,"06:33:04",1
"23/10/11","06:50",0.0,13.9,92.9,1016.1,273.3,0.8,1.4,262.6,0.00,12.8,18.5,"06:47:12",1
"23/10/11","07:00",0.0,14.1,93.0,1015.6,311.6,1.6,2.5,315.0,0.01,13.0,18.5,"06:52:48",1
"23/10/11","07:10",0.0,14.4,93.0,1015.6,281.3,0.7,1.7,302.6,0.02,13.3,18.3,"07:00:48",1
"23/10/11","07:20",0.0,14.5,93.0,1015.9,252.6,0.5,0.8,280.5,0.03,13.4,18.5,"07:15:14",1
"23/10/11","07:30",0.0,14.8,92.9,1016.1,256.6,1.0,1.8,242.0,0.05,13.7,18.3,"07:26:48",1
"23/10/11","07:40",0.0,15.4,92.8,1016.4,267.4,1.2,1.8,247.6,0.08,14.3,18.7,"07:34:58",1
"23/10/11","07:50",0.0,15.7,92.1,1016.6,295.8,1.2,1.6,268.3,0.08,14.5,18.4,"07:42:40",1
"23/10/11","08:00",0.0,15.9,91.3,1016.6,321.3,1.2,1.8,326.5,0.07,14.5,18.5,"07:50:32",1
"23/10/11","08:10",0.0,16.2,90.6,1016.6,319.3,1.2,2.2,330.8,0.06,14.7,18.5,"08:03:12",1
"23/10/11","08:20",0.0,16.4,89.6,1016.8,267.8,0.5,1.2,320.6,0.06,14.7,18.6,"08:14:48",1
"23/10/11","08:30",0.0,16.7,89.0,1016.4,271.7,0.3,0.9,234.1,0.05,14.9,18.4,"08:21:44",1
"23/10/11","08:40",0.0,17.2,88.4,1016.4,263.7,0.5,1.1,244.2,0.19,15.3,18.5,"08:37:20",1
"23/10/11","08:50",0.0,17.8,86.2,1016.1,300.2,0.7,1.4,248.8,0.17,15.5,18.5,"08:42:24",1
"23/10/11","09:00",0.0,18.2,83.9,1016.4,304.1,0.6,1.2,249.2,0.11,15.5,18.4,"08:51:20",1
"23/10/11","09:10",0.0,18.9,80.3,1016.1,258.4,0.8,2.0,228.6,0.28,15.5,18.5,"09:08:40",1
"23/10/11","09:20",0.0,19.4,75.5,1016.1,225.4,1.3,2.8,223.0,0.22,15.0,18.6,"09:12:24",1
"23/10/11","09:30",0.0,20.3,70.6,1015.6,177.6,1.1,2.4,233.9,0.28,14.8,18.7,"09:24:40",1
"23/10/11","09:40",0.0,21.0,67.8,1015.6,174.0,0.6,1.7,121.0,0.27,14.9,18.5,"09:30:40",1
"23/10/11","09:50",0.0,21.6,64.5,1015.4,213.1,1.1,3.7,239.6,0.37,14.7,18.7,"09:48:32",1
"23/10/11","10:00",0.0,21.8,61.1,1015.4,337.7,1.6,7.1,350.1,0.38,14.0,18.7,"09:59:12",1
"23/10/11","10:10",0.0,21.8,55.7,1015.4,355.4,2.3,6.2,355.1,0.34,12.6,18.8,"10:06:24",1
"23/10/11","10:20",0.0,22.3,51.5,1014.9,356.9,2.8,6.2,31.9,0.41,11.9,18.9,"10:11:44",1
"23/10/11","10:30",0.0,22.7,50.0,1014.9,352.1,2.0,3.9,344.8,0.38,11.8,18.8,"10:20:16",1
"23/10/11","10:40",0.0,23.2,47.5,1014.7,353.9,2.1,4.4,321.8,0.43,11.5,19.2,"10:31:20",1
"23/10/11","10:50",0.0,23.3,45.4,1014.5,344.3,2.1,4.8,346.3,0.44,10.9,19.2,"10:43:36",1
"23/10/11","11:00",0.0,23.5,44.3,1014.2,359.3,2.5,5.0,334.1,0.45,10.7,19.1,"10:52:32",1
"23/10/11","11:10",0.0,24.0,43.6,1013.8,354.4,2.1,4.5,341.0,0.47,10.9,19.2,"11:02:08",1
"23/10/11","11:20",0.0,24.3,42.3,1013.5,12.5,1.7,5.0,348.1,0.46,10.7,19.2,"11:18:48",1
"23/10/11","11:30",0.0,24.3,42.3,1013.5,343.0,2.1,4.4,344.2,0.43,10.7,19.3,"11:22:32",1
"23/10/11","11:40",0.0,23.7,43.6,1013.3,347.1,2.8,6.6,334.1,0.40,10.6,19.4,"11:36:48",1
"23/10/11","11:50",0.0,24.0,43.1,1013.3,356.5,2.5,4.9,0.1,0.45,10.7,19.4,"11:49:36",1
"23/10/11","12:00",0.0,23.8,43.3,1013.0,2.4,2.5,6.3,31.8,0.41,10.6,19.5,"11:50:24",1
"23/10/11","12:10",0.0,24.0,44.2,1013.5,5.5,2.3,4.7,50.1,0.43,11.1,19.4,"12:00:56",1
"23/10/11","12:20",0.0,24.3,42.7,1013.3,6.4,2.0,4.3,21.3,0.42,10.9,19.5,"12:13:04",1
"23/10/11","12:30",0.0,24.5,44.4,1013.0,357.7,1.8,4.2,343.2,0.42,11.6,19.6,"12:20:56",1
"23/10/11","12:40",0.0,24.8,45.0,1012.6,340.0,1.7,4.3,1.3,0.42,12.1,19.9,"12:31:20",1
"23/10/11","12:50",0.0,24.5,45.3,1012.6,335.6,2.1,4.1,0.4,0.43,11.9,19.9,"12:45:36",1
"23/10/11","13:00",0.0,24.7,46.3,1012.6,349.3,2.3,6.5,335.4,0.42,12.5,19.7,"12:55:28",1
"23/10/11","13:10",0.0,24.2,46.7,1012.6,339.7,3.0,5.8,348.7,0.40,12.1,20.0,"13:05:12",1
"23/10/11","13:20",0.0,24.1,47.2,1012.3,337.6,3.0,5.9,357.4,0.39,12.2,20.1,"13:10:56",1
"23/10/11","13:30",0.0,24.1,46.8,1012.3,341.2,3.2,5.5,3.0,0.38,12.1,20.2,"13:25:20",1
"23/10/11","13:40",0.0,24.3,47.4,1012.1,345.5,2.8,6.4,319.8,0.37,12.4,20.1,"13:36:56",1
"23/10/11","13:50",0.0,24.2,46.8,1012.3,338.2,2.8,5.2,351.5,0.35,12.2,20.2,"13:45:28",1
"23/10/11","14:00",0.0,24.4,47.2,1012.1,345.1,2.6,6.3,352.7,0.34,12.5,20.1,"13:51:12",1
"23/10/11","14:10",0.0,24.2,48.3,1012.1,344.9,2.8,6.0,342.3,0.32,12.6,20.3,"14:02:40",1
"23/10/11","14:20",0.0,24.0,48.1,1012.6,335.3,3.0,5.8,355.5,0.30,12.4,20.2,"14:13:04",1
"23/10/11","14:30",0.0,24.1,48.1,1012.1,344.2,2.7,9.0,344.1,0.28,12.5,20.5,"14:21:12",1
"23/10/11","14:40",0.0,23.9,49.0,1012.3,338.0,3.0,5.1,331.4,0.26,12.6,20.6,"14:30:48",1
"23/10/11","14:50",0.0,23.9,48.7,1012.6,340.6,2.8,4.8,355.7,0.24,12.5,20.4,"14:44:48",1
"23/10/11","15:00",0.0,23.7,48.5,1012.6,344.7,3.0,7.3,328.2,0.22,12.2,20.4,"14:57:20",1
"23/10/11","15:10",0.0,24.1,48.5,1012.6,353.1,2.0,4.4,14.9,0.20,12.6,20.4,"15:05:52",1
"23/10/11","15:20",0.0,23.5,49.1,1012.6,344.2,2.7,10.0,326.8,0.18,12.3,20.3,"15:19:12",1
"23/10/11","15:30",0.0,23.0,51.3,1013.0,338.1,2.8,5.6,347.9,0.15,12.5,20.6,"15:25:52",1
"23/10/11","15:40",0.0,22.9,51.1,1013.0,336.0,2.6,5.1,346.7,0.13,12.3,20.6,"15:38:56",1
"23/10/11","15:50",0.0,22.9,51.4,1013.3,341.5,2.3,4.4,9.8,0.11,12.4,20.7,"15:40:16",1
"23/10/11","16:00",0.0,22.7,52.5,1013.3,342.9,2.3,4.3,7.2,0.09,12.5,20.4,"15:52:48",1
"23/10/11","16:10",0.0,22.4,52.0,1013.3,346.1,2.7,5.5,346.1,0.07,12.1,20.6,"16:09:44",1
"23/10/11","16:20",0.0,22.0,51.6,1013.5,337.4,2.7,4.9,355.3,0.05,11.6,20.6,"16:13:12",1
"23/10/11","16:30",0.0,21.6,53.7,1013.5,341.7,2.3,7.8,341.9,0.03,11.9,20.4,"16:25:28",1
"23/10/11","16:40",0.0,21.3,54.8,1013.3,342.3,2.3,5.5,341.9,0.02,11.9,20.5,"16:38:40",1
"23/10/11","16:50",0.0,20.6,58.0,1013.5,339.6,2.2,4.7,351.0,0.00,12.1,20.5,"16:41:36",1
"23/10/11","17:00",0.0,20.2,59.2,1013.8,336.4,2.1,3.9,320.3,0.00,12.0,20.2,"16:59:20",1
"23/10/11","17:10",0.0,19.8,60.9,1014.0,334.4,1.8,5.6,340.7,0.00,12.1,20.4,"17:05:44",1
"23/10/11","17:20",0.0,19.5,62.0,1013.8,333.7,1.8,5.1,333.3,0.00,12.1,20.3,"17:19:28",1
"23/10/11","17:30",0.0,19.2,62.7,1014.0,330.7,1.7,4.2,340.4,0.00,12.0,20.5,"17:22:40",1
"23/10/11","17:40",0.0,19.0,63.6,1014.2,322.9,1.5,3.3,16.8,0.00,12.0,20.3,"17:35:28",1
"23/10/11","17:50",0.0,18.6,64.4,1014.5,301.9,1.3,2.6,320.0,0.00,11.8,20.3,"17:43:52",1
"23/10/11","18:00",0.0,18.4,65.2,1014.7,291.2,1.3,2.5,262.3,0.00,11.8,20.2,"17:59:12",1
"23/10/11","18:10",0.0,18.2,65.8,1014.9,301.5,1.3,2.6,309.1,0.00,11.7,20.3,"18:05:52",1
"23/10/11","18:20",0.0,18.1,66.4,1014.7,308.0,1.7,2.6,348.5,0.00,11.8,20.1,"18:17:28",1
"23/10/11","18:30",0.0,17.8,66.8,1014.9,306.9,1.6,2.8,312.6,0.00,11.6,20.1,"18:23:52",1
"23/10/11","18:40",0.0,17.5,67.4,1014.9,301.9,1.1,2.5,338.2,0.00,11.4,20.1,"18:38:32",1
"23/10/11","18:50",0.0,17.0,68.4,1015.2,312.2,1.1,1.8,309.8,0.00,11.2,19.9,"18:41:28",1
"23/10/11","19:00",0.0,16.5,69.9,1015.2,305.4,1.3,2.4,305.0,0.00,11.0,19.9,"18:56:50",1
"23/10/11","19:10",0.0,16.1,71.0,1015.4,298.3,0.6,1.3,345.6,0.00,10.9,19.9,"19:02:14",1
"23/10/11","19:20",0.0,15.4,73.6,1015.4,323.5,1.3,2.0,316.1,0.00,10.8,19.8,"19:13:46",1
"23/10/11","19:30",0.0,15.1,76.6,1015.4,296.9,1.5,3.9,339.6,0.00,11.1,19.7,"19:27:08",1
"23/10/11","19:40",0.0,15.5,77.5,1015.2,310.0,1.7,3.4,316.2,0.00,11.6,19.9,"19:30:48",1
"23/10/11","19:50",0.0,15.7,76.9,1015.2,312.2,1.6,2.6,325.4,0.00,11.7,19.8,"19:40:10",1
"23/10/11","20:00",0.0,16.0,75.5,1015.6,313.2,1.7,3.5,319.9,0.00,11.7,19.5,"19:52:26",1
"23/10/11","20:10",0.0,15.7,75.2,1015.6,329.2,0.3,1.3,335.3,0.00,11.4,19.6,"20:01:06",1
"23/10/11","20:20",0.0,15.0,76.8,1015.9,289.3,1.0,1.7,297.2,0.00,11.0,19.6,"20:18:56",1
"23/10/11","20:30",0.0,14.7,78.4,1015.6,279.6,0.7,1.4,311.6,0.00,11.0,19.5,"20:25:44",1
"23/10/11","20:40",0.0,14.6,79.6,1015.6,276.9,1.0,1.7,305.4,0.00,11.2,19.6,"20:38:32",1
"23/10/11","20:50",0.0,14.4,80.5,1015.9,291.1,0.5,1.6,295.5,0.00,11.1,19.2,"20:43:44",1
"23/10/11","21:00",0.0,14.4,81.4,1015.9,306.2,1.2,3.1,323.8,0.00,11.3,19.5,"20:56:40",1
"23/10/11","21:10",0.0,14.9,81.1,1016.1,325.5,1.5,2.9,333.8,0.00,11.7,19.4,"21:06:24",1
"23/10/11","21:20",0.0,15.1,80.3,1016.1,315.8,1.1,2.7,323.3,0.00,11.8,19.4,"21:11:20",1
"23/10/11","21:30",0.0,15.0,79.7,1016.1,294.6,0.8,2.6,333.2,0.00,11.6,19.1,"21:22:16",1
"23/10/11","21:40",0.0,14.5,80.5,1016.4,271.5,0.5,1.1,303.8,0.00,11.2,19.0,"21:39:04",1
"23/10/11","21:50",0.0,14.0,81.3,1016.4,287.9,0.5,1.1,296.9,0.00,10.9,19.1,"21:49:56",1
"23/10/11","22:00",0.0,13.9,82.6,1016.4,308.9,0.7,2.1,317.4,0.00,11.0,19.1,"21:56:54",1
"23/10/11","22:10",0.0,13.7,83.4,1016.1,312.9,0.8,1.9,338.3,0.00,11.0,18.9,"22:06:36",1
"23/10/11","22:20",0.0,13.8,84.0,1016.4,309.9,1.0,1.6,305.8,0.00,11.2,18.8,"22:18:58",1
"23/10/11","22:30",0.0,13.9,84.4,1016.4,324.5,1.5,2.2,339.8,0.00,11.4,19.0,"22:28:08",1
"23/10/11","22:40",0.0,14.1,84.3,1016.6,329.1,1.8,2.5,330.6,0.00,11.5,19.1,"22:34:48",1
"23/10/11","22:50",0.0,14.1,84.5,1016.8,320.8,1.8,2.5,312.6,0.00,11.6,18.8,"22:41:22",1
"23/10/11","23:00",0.0,14.3,84.4,1016.6,327.7,2.1,3.6,341.7,0.00,11.7,18.9,"22:55:30",1
"23/10/11","23:10",0.0,14.3,84.1,1016.6,326.4,2.0,3.1,328.2,0.00,11.7,18.7,"23:02:38",1
"23/10/11","23:20",0.0,14.4,83.8,1016.6,322.7,2.2,3.4,332.5,0.00,11.7,18.9,"23:15:14",1
"23/10/11","23:30",0.0,14.4,83.5,1016.6,324.7,2.1,3.1,343.4,0.00,11.7,18.7,"23:21:32",1
"23/10/11","23:40",0.0,14.4,83.1,1016.6,322.7,2.0,2.9,339.1,0.00,11.6,18.6,"23:33:14",1
"23/10/11","23:50",0.0,14.2,83.3,1016.6,307.7,1.6,2.5,318.1,0.00,11.5,18.7,"23:46:20",1
"23/10/11","24:00",0.0,14.0,83.5,1016.8,289.2,1.5,2.5,311.6,0.00,11.3,18.7,"23:52:28",1
